Home   Weather   Wheaton   Past weeks

Flag for USA Past Weather in Wheaton, Illinois, USA — Yesterday and Last 2 Weeks

Now
72 °F

Sunny.


Feels Like: 75 °F
Forecast: 39 / 74 °F
Wind: 15 mph from Southeast

Location: Dupage Airport

Current Time: Apr 24, 2017 at 2:41:08 pm

Latest Report: Apr 24, 2017 at 1:52 pm


Visibility: 10 mi

Pressure: 29.89 "Hg

Humidity: 22%

Dew Point: 31 °F

Location of WheatonLocation

Past Weather in Wheaton — Graph

°F

Wheaton Temperature Yesterday

Maximum temperature yesterday: 72 °F (at 5:52 pm)
Minimum temperature yesterday: 34 °F (at 4:52 am)
Average temperature yesterday: 54 °F

High & Low Weather Summary for the Past Weeks

 TemperatureHumidityPressure
High80 °F (Apr 15, 1:52 pm)100% (Apr 10, 7:52 pm)30.40 "Hg (Apr 10, 7:52 pm)
Low34 °F (Apr 12, 6:31 am)22% (Apr 23, 3:52 pm)29.63 "Hg (Apr 9, 4:52 pm)
Average56 °F70%30.05 "Hg
* Reported Apr 9 12:52 pm — Apr 24 12:52 pm, Wheaton, Weather by CustomWeather, © 2017

Note: Actual official high and low records may vary slightly from our data, if they occured in-between our weather recording intervals... More about our weather records

Advertising

Wheaton Weather History for the Previous 24 Hours

Scroll right to see more
 ConditionsComfort  
Time TempWeatherWind HumidityBarometerVisibility
12:52 pm
Mon, Apr 24
71 °FSunny.10 mph24%29.93 "Hg10 mi
11:52 am69 °FSunny.12 mph25%29.95 "Hg10 mi
10:52 am67 °FSunny.10 mph30%29.98 "Hg10 mi
9:52 am63 °FSunny.5 mph41%29.99 "Hg10 mi
8:52 am55 °FSunny.3 mph59%30.02 "Hg10 mi
7:52 am46 °FSunny.No wind83%30.03 "Hg10 mi
6:52 am38 °FSunny.5 mph97%30.02 "Hg10 mi
5:52 am35 °FClear.5 mph100%30.01 "Hg10 mi
4:52 am37 °FClear.5 mph100%30.01 "Hg10 mi
3:52 am36 °FClear.5 mph100%30.01 "Hg10 mi
2:52 am38 °FClear.5 mph97%30.00 "Hg10 mi
1:52 am39 °FClear.5 mph93%30.01 "Hg10 mi
12:52 am41 °FClear.6 mph89%30.03 "Hg10 mi
11:52 pm
Sun, Apr 23
42 °FClear.7 mph85%30.03 "Hg10 mi
10:52 pm51 °FClear.8 mph56%30.03 "Hg10 mi
9:52 pm56 °FClear.5 mph44%30.03 "Hg10 mi
8:52 pm58 °FClear.6 mph39%30.05 "Hg10 mi
7:52 pm61 °FClear.7 mph35%30.03 "Hg10 mi
6:52 pm66 °FSunny.13 mph29%30.03 "Hg10 mi
5:52 pm72 °FSunny.No wind22%30.02 "Hg10 mi
4:52 pm71 °FSunny.5 mph25%30.03 "Hg10 mi
3:52 pm71 °FSunny.No wind22%30.03 "Hg10 mi
2:52 pm71 °FSunny.6 mph23%30.05 "Hg10 mi
Weather by CustomWeather, © 2017

See weather overviewHow to use our weather pages